<?xml version="1.0" encoding="UTF-8" standalone="no" ?>
<gpx xmlns="http://www.topografix.com/GPX/1/1" xmlns:xsi="http://www.w3.org/2001/XMLSchema-instance" xsi:schemaLocation="http://www.topografix.com/GPX/1/1 http://www.topografix.com/GPX/1/1/gpx.xsd" version="1.1" creator="VisuGPX - https://www.visugpx.com">
  <metadata>
    <name>Ecrins 2021</name>
  </metadata>
  <wpt lat="44.8396" lon="6.47901">
    <ele>1191.4</ele>
    <name><![CDATA[Vallouise]]></name>
  </wpt>
  <wpt lat="44.83903" lon="6.47524">
    <ele>1196.1</ele>
    <name><![CDATA[Pont des Fontaines]]></name>
  </wpt>
  <wpt lat="44.83931" lon="6.45488">
    <ele>1245.7</ele>
    <name><![CDATA[Pont des Places]]></name>
  </wpt>
  <wpt lat="44.83632" lon="6.44255">
    <ele>1309.8</ele>
    <name><![CDATA[Eboulement]]></name>
  </wpt>
  <wpt lat="44.83869" lon="6.44564">
    <ele>1289.8</ele>
    <name><![CDATA[Les Grésourières]]></name>
  </wpt>
  <wpt lat="44.83597" lon="6.43037">
    <ele>1466.9</ele>
    <name><![CDATA[Béassac]]></name>
  </wpt>
  <wpt lat="44.83117" lon="6.40174">
    <ele>1622.1</ele>
    <name><![CDATA[Entre les Aygues]]></name>
  </wpt>
  <wpt lat="44.83049" lon="6.40124">
    <ele>1609.1</ele>
    <name><![CDATA[Passerelle sur le torrent des Bans]]></name>
  </wpt>
  <wpt lat="44.81358" lon="6.38864">
    <ele>1836.5</ele>
    <name><![CDATA[Panneau d'entrée dans le parc des Ecrins]]></name>
  </wpt>
  <wpt lat="44.80661" lon="6.37616">
    <ele>1939.8</ele>
    <name><![CDATA[Passerelle sur le ruisseau du Ravin du Blanc]]></name>
  </wpt>
  <wpt lat="44.8009" lon="6.36589">
    <ele>2016.2</ele>
    <name><![CDATA[Passerelle sur le ruisseau de Chanteloube]]></name>
  </wpt>
  <wpt lat="44.79287" lon="6.36504">
    <ele>2131</ele>
    <name><![CDATA[1er ressaut]]></name>
  </wpt>
  <wpt lat="44.79042" lon="6.36483">
    <ele>2165</ele>
    <name><![CDATA[2ème ressaut]]></name>
  </wpt>
  <wpt lat="44.78733" lon="6.36223">
    <ele>2279.1</ele>
    <name><![CDATA[Champ Rond]]></name>
  </wpt>
  <wpt lat="44.78227" lon="6.35819">
    <ele>2498.2</ele>
    <name><![CDATA[Torrent de la Saume]]></name>
  </wpt>
  <wpt lat="44.76133" lon="6.34075">
    <ele>2074.9</ele>
    <name><![CDATA[Cabanes de Rougnoux]]></name>
  </wpt>
  <wpt lat="44.7633" lon="6.33688">
    <ele>1969.9</ele>
    <name><![CDATA[Passerelle sur le torrent de Rougnoux]]></name>
  </wpt>
  <wpt lat="44.7672" lon="6.32888">
    <ele>1831.2</ele>
    <name><![CDATA[Bivouac du refuge du Pré de la Chaumette]]></name>
  </wpt>
  <wpt lat="44.7729" lon="6.31142">
    <ele>2512.9</ele>
    <name><![CDATA[Sous le Puy de la Chaumette]]></name>
  </wpt>
  <wpt lat="44.81151" lon="6.29603">
    <ele>1704.7</ele>
    <name><![CDATA[Passerelle sur le torrent de Vallonpierre]]></name>
  </wpt>
  <wpt lat="44.81485" lon="6.29576">
    <ele>1660.5</ele>
    <name><![CDATA[Torrent de Vallonpierre]]></name>
  </wpt>
  <wpt lat="44.82482" lon="6.29325">
    <ele>1569.6</ele>
    <name><![CDATA[Passerelle sur la Séveraisse]]></name>
  </wpt>
  <wpt lat="44.82779" lon="6.29194">
    <ele>1545.2</ele>
    <name><![CDATA[Passerelle sur le Torrent de Pis Baumette]]></name>
  </wpt>
  <wpt lat="44.83173" lon="6.28114">
    <ele>1439</ele>
    <name><![CDATA[Passerelle sur le Torrent du Gioberney]]></name>
  </wpt>
  <wpt lat="44.8266" lon="6.26079">
    <ele>1402.8</ele>
    <name><![CDATA[Rif du Sap]]></name>
  </wpt>
  <wpt lat="44.82438" lon="6.23313">
    <ele>1174.1</ele>
    <name><![CDATA[Pont du Hameau du Bourg]]></name>
  </wpt>
  <wpt lat="44.81982" lon="6.21913">
    <ele>1151.2</ele>
    <name><![CDATA[Passerelle du Casset]]></name>
  </wpt>
  <trk>
    <name><![CDATA[E11 Refuge de la Muzelle - Le Bourg d'Oisans]]></name>
    <trkseg>
      <trkpt lat="44.95303" lon="6.0972">
        <ele>2112</ele>
        <time>2020-10-27T09:19:21+01:00</time>
      </trkpt>
      <trkpt lat="44.95217" lon="6.09641">
        <ele>2101</ele>
        <time>2020-10-27T09:19:26+01:00</time>
      </trkpt>
      <trkpt lat="44.95179" lon="6.09589">
        <ele>2103</ele>
        <time>2020-10-27T09:19:31+01:00</time>
      </trkpt>
      <trkpt lat="44.95115" lon="6.09538">
        <ele>2100</ele>
        <time>2020-10-27T09:19:36+01:00</time>
      </trkpt>
      <trkpt lat="44.95109" lon="6.09508">
        <ele>2100</ele>
        <time>2020-10-27T09:19:41+01:00</time>
      </trkpt>
      <trkpt lat="44.95092" lon="6.09514">
        <ele>2101</ele>
        <time>2020-10-27T09:19:46+01:00</time>
      </trkpt>
      <trkpt lat="44.95071" lon="6.09482">
        <ele>2105</ele>
        <time>2020-10-27T09:19:51+01:00</time>
      </trkpt>
      <trkpt lat="44.95079" lon="6.09392">
        <ele>2112</ele>
        <time>2020-10-27T09:19:56+01:00</time>
      </trkpt>
      <trkpt lat="44.95095" lon="6.09351">
        <ele>2117</ele>
        <time>2020-10-27T09:20:01+01:00</time>
      </trkpt>
      <trkpt lat="44.95139" lon="6.09314">
        <ele>2121</ele>
        <time>2020-10-27T09:20:06+01:00</time>
      </trkpt>
      <trkpt lat="44.95135" lon="6.09199">
        <ele>2133</ele>
        <time>2020-10-27T09:20:11+01:00</time>
      </trkpt>
      <trkpt lat="44.9522" lon="6.0901">
        <ele>2177</ele>
        <time>2020-10-27T09:20:16+01:00</time>
      </trkpt>
      <trkpt lat="44.95249" lon="6.0898">
        <ele>2181</ele>
        <time>2020-10-27T09:20:21+01:00</time>
      </trkpt>
      <trkpt lat="44.95241" lon="6.08965">
        <ele>2191</ele>
        <time>2020-10-27T09:20:26+01:00</time>
      </trkpt>
      <trkpt lat="44.95312" lon="6.08875">
        <ele>2205</ele>
        <time>2020-10-27T09:20:31+01:00</time>
      </trkpt>
      <trkpt lat="44.95281" lon="6.08784">
        <ele>2256</ele>
        <time>2020-10-27T09:20:36+01:00</time>
      </trkpt>
      <trkpt lat="44.95311" lon="6.08684">
        <ele>2280</ele>
        <time>2020-10-27T09:20:41+01:00</time>
      </trkpt>
      <trkpt lat="44.95369" lon="6.08628">
        <ele>2293</ele>
        <time>2020-10-27T09:20:46+01:00</time>
      </trkpt>
      <trkpt lat="44.95448" lon="6.08533">
        <ele>2312</ele>
        <time>2020-10-27T09:20:51+01:00</time>
      </trkpt>
      <trkpt lat="44.95441" lon="6.08437">
        <ele>2358</ele>
        <time>2020-10-27T09:20:56+01:00</time>
      </trkpt>
      <trkpt lat="44.95461" lon="6.0842">
        <ele>2367</ele>
        <time>2020-10-27T09:21:01+01:00</time>
      </trkpt>
      <trkpt lat="44.95452" lon="6.08355">
        <ele>2396</ele>
        <time>2020-10-27T09:21:06+01:00</time>
      </trkpt>
      <trkpt lat="44.95472" lon="6.0836">
        <ele>2400</ele>
        <time>2020-10-27T09:21:11+01:00</time>
      </trkpt>
      <trkpt lat="44.95449" lon="6.08321">
        <ele>2413</ele>
        <time>2020-10-27T09:21:16+01:00</time>
      </trkpt>
      <trkpt lat="44.95487" lon="6.08321">
        <ele>2425</ele>
        <time>2020-10-27T09:21:21+01:00</time>
      </trkpt>
      <trkpt lat="44.95441" lon="6.08269">
        <ele>2439</ele>
        <time>2020-10-27T09:21:26+01:00</time>
      </trkpt>
      <trkpt lat="44.95492" lon="6.08278">
        <ele>2450</ele>
        <time>2020-10-27T09:21:31+01:00</time>
      </trkpt>
      <trkpt lat="44.95486" lon="6.08242">
        <ele>2473</ele>
        <time>2020-10-27T09:21:36+01:00</time>
      </trkpt>
      <trkpt lat="44.95501" lon="6.08199">
        <ele>2510</ele>
        <time>2020-10-27T09:21:41+01:00</time>
      </trkpt>
      <trkpt lat="44.95434" lon="6.08134">
        <ele>2528</ele>
        <time>2020-10-27T09:21:46+01:00</time>
      </trkpt>
      <trkpt lat="44.95469" lon="6.08066">
        <ele>2514</ele>
        <time>2020-10-27T09:21:51+01:00</time>
      </trkpt>
      <trkpt lat="44.95564" lon="6.08046">
        <ele>2503</ele>
        <time>2020-10-27T09:21:56+01:00</time>
      </trkpt>
      <trkpt lat="44.95634" lon="6.08046">
        <ele>2488</ele>
        <time>2020-10-27T09:22:01+01:00</time>
      </trkpt>
      <trkpt lat="44.95724" lon="6.08087">
        <ele>2466</ele>
        <time>2020-10-27T09:22:06+01:00</time>
      </trkpt>
      <trkpt lat="44.95786" lon="6.08111">
        <ele>2451</ele>
        <time>2020-10-27T09:22:11+01:00</time>
      </trkpt>
      <trkpt lat="44.95851" lon="6.08081">
        <ele>2427</ele>
        <time>2020-10-27T09:22:16+01:00</time>
      </trkpt>
      <trkpt lat="44.95845" lon="6.08057">
        <ele>2419</ele>
        <time>2020-10-27T09:22:21+01:00</time>
      </trkpt>
      <trkpt lat="44.95876" lon="6.08038">
        <ele>2410</ele>
        <time>2020-10-27T09:22:26+01:00</time>
      </trkpt>
      <trkpt lat="44.95876" lon="6.08018">
        <ele>2404</ele>
        <time>2020-10-27T09:22:31+01:00</time>
      </trkpt>
      <trkpt lat="44.95895" lon="6.08003">
        <ele>2397</ele>
        <time>2020-10-27T09:22:36+01:00</time>
      </trkpt>
      <trkpt lat="44.95902" lon="6.07973">
        <ele>2387</ele>
        <time>2020-10-27T09:22:41+01:00</time>
      </trkpt>
      <trkpt lat="44.95936" lon="6.07952">
        <ele>2368</ele>
        <time>2020-10-27T09:22:46+01:00</time>
      </trkpt>
      <trkpt lat="44.95914" lon="6.07915">
        <ele>2364</ele>
        <time>2020-10-27T09:22:51+01:00</time>
      </trkpt>
      <trkpt lat="44.95891" lon="6.07862">
        <ele>2350</ele>
        <time>2020-10-27T09:22:56+01:00</time>
      </trkpt>
      <trkpt lat="44.95924" lon="6.07821">
        <ele>2325</ele>
        <time>2020-10-27T09:23:01+01:00</time>
      </trkpt>
      <trkpt lat="44.95918" lon="6.07795">
        <ele>2318</ele>
        <time>2020-10-27T09:23:06+01:00</time>
      </trkpt>
      <trkpt lat="44.95968" lon="6.07804">
        <ele>2304</ele>
        <time>2020-10-27T09:23:11+01:00</time>
      </trkpt>
      <trkpt lat="44.9599" lon="6.07763">
        <ele>2291</ele>
        <time>2020-10-27T09:23:16+01:00</time>
      </trkpt>
      <trkpt lat="44.96049" lon="6.07778">
        <ele>2280</ele>
        <time>2020-10-27T09:23:21+01:00</time>
      </trkpt>
      <trkpt lat="44.96082" lon="6.07752">
        <ele>2263</ele>
        <time>2020-10-27T09:23:26+01:00</time>
      </trkpt>
      <trkpt lat="44.96129" lon="6.078">
        <ele>2257</ele>
        <time>2020-10-27T09:23:31+01:00</time>
      </trkpt>
      <trkpt lat="44.96169" lon="6.07791">
        <ele>2243</ele>
        <time>2020-10-27T09:23:36+01:00</time>
      </trkpt>
      <trkpt lat="44.96237" lon="6.07769">
        <ele>2221</ele>
        <time>2020-10-27T09:23:41+01:00</time>
      </trkpt>
      <trkpt lat="44.96242" lon="6.07744">
        <ele>2210</ele>
        <time>2020-10-27T09:23:46+01:00</time>
      </trkpt>
      <trkpt lat="44.96328" lon="6.07737">
        <ele>2180</ele>
        <time>2020-10-27T09:23:51+01:00</time>
      </trkpt>
      <trkpt lat="44.96377" lon="6.07709">
        <ele>2166</ele>
        <time>2020-10-27T09:23:56+01:00</time>
      </trkpt>
      <trkpt lat="44.96372" lon="6.07619">
        <ele>2120</ele>
        <time>2020-10-27T09:24:01+01:00</time>
      </trkpt>
      <trkpt lat="44.9643" lon="6.07559">
        <ele>2080</ele>
        <time>2020-10-27T09:24:06+01:00</time>
      </trkpt>
      <trkpt lat="44.96415" lon="6.07533">
        <ele>2071</ele>
        <time>2020-10-27T09:24:11+01:00</time>
      </trkpt>
      <trkpt lat="44.96438" lon="6.07518">
        <ele>2061</ele>
        <time>2020-10-27T09:24:16+01:00</time>
      </trkpt>
      <trkpt lat="44.96401" lon="6.07456">
        <ele>2044</ele>
        <time>2020-10-27T09:24:21+01:00</time>
      </trkpt>
      <trkpt lat="44.9639" lon="6.07385">
        <ele>2027</ele>
        <time>2020-10-27T09:24:26+01:00</time>
      </trkpt>
      <trkpt lat="44.965" lon="6.07403">
        <ele>2002</ele>
        <time>2020-10-27T09:24:31+01:00</time>
      </trkpt>
      <trkpt lat="44.96523" lon="6.07372">
        <ele>1990</ele>
        <time>2020-10-27T09:24:36+01:00</time>
      </trkpt>
      <trkpt lat="44.96513" lon="6.07342">
        <ele>1977</ele>
        <time>2020-10-27T09:24:41+01:00</time>
      </trkpt>
      <trkpt lat="44.96541" lon="6.07302">
        <ele>1956</ele>
        <time>2020-10-27T09:24:46+01:00</time>
      </trkpt>
      <trkpt lat="44.96629" lon="6.07274">
        <ele>1923</ele>
        <time>2020-10-27T09:24:51+01:00</time>
      </trkpt>
      <trkpt lat="44.96693" lon="6.07289">
        <ele>1917</ele>
        <time>2020-10-27T09:24:56+01:00</time>
      </trkpt>
      <trkpt lat="44.96738" lon="6.07229">
        <ele>1887</ele>
        <time>2020-10-27T09:25:01+01:00</time>
      </trkpt>
      <trkpt lat="44.96711" lon="6.07197">
        <ele>1871</ele>
        <time>2020-10-27T09:25:06+01:00</time>
      </trkpt>
      <trkpt lat="44.96721" lon="6.0716">
        <ele>1853</ele>
        <time>2020-10-27T09:25:11+01:00</time>
      </trkpt>
      <trkpt lat="44.96697" lon="6.07128">
        <ele>1836</ele>
        <time>2020-10-27T09:25:16+01:00</time>
      </trkpt>
      <trkpt lat="44.96717" lon="6.07098">
        <ele>1817</ele>
        <time>2020-10-27T09:25:21+01:00</time>
      </trkpt>
      <trkpt lat="44.96728" lon="6.07072">
        <ele>1801</ele>
        <time>2020-10-27T09:25:26+01:00</time>
      </trkpt>
      <trkpt lat="44.96691" lon="6.07018">
        <ele>1780</ele>
        <time>2020-10-27T09:25:31+01:00</time>
      </trkpt>
      <trkpt lat="44.96758" lon="6.06988">
        <ele>1737</ele>
        <time>2020-10-27T09:25:36+01:00</time>
      </trkpt>
      <trkpt lat="44.96794" lon="6.07087">
        <ele>1746</ele>
        <time>2020-10-27T09:25:41+01:00</time>
      </trkpt>
      <trkpt lat="44.96819" lon="6.07119">
        <ele>1750</ele>
        <time>2020-10-27T09:25:46+01:00</time>
      </trkpt>
      <trkpt lat="44.96893" lon="6.07061">
        <ele>1737</ele>
        <time>2020-10-27T09:25:51+01:00</time>
      </trkpt>
      <trkpt lat="44.96983" lon="6.07113">
        <ele>1710</ele>
        <time>2020-10-27T09:25:56+01:00</time>
      </trkpt>
      <trkpt lat="44.97054" lon="6.07212">
        <ele>1695</ele>
        <time>2020-10-27T09:26:01+01:00</time>
      </trkpt>
      <trkpt lat="44.97119" lon="6.0722">
        <ele>1671</ele>
        <time>2020-10-27T09:26:06+01:00</time>
      </trkpt>
      <trkpt lat="44.97084" lon="6.07113">
        <ele>1629</ele>
        <time>2020-10-27T09:26:11+01:00</time>
      </trkpt>
      <trkpt lat="44.97145" lon="6.07134">
        <ele>1606</ele>
        <time>2020-10-27T09:26:16+01:00</time>
      </trkpt>
      <trkpt lat="44.97122" lon="6.07042">
        <ele>1581</ele>
        <time>2020-10-27T09:26:21+01:00</time>
      </trkpt>
      <trkpt lat="44.97191" lon="6.07098">
        <ele>1560</ele>
        <time>2020-10-27T09:26:26+01:00</time>
      </trkpt>
      <trkpt lat="44.97213" lon="6.07134">
        <ele>1563</ele>
        <time>2020-10-27T09:26:31+01:00</time>
      </trkpt>
      <trkpt lat="44.97232" lon="6.07074">
        <ele>1540</ele>
        <time>2020-10-27T09:26:36+01:00</time>
      </trkpt>
      <trkpt lat="44.97269" lon="6.07025">
        <ele>1523</ele>
        <time>2020-10-27T09:26:41+01:00</time>
      </trkpt>
      <trkpt lat="44.97282" lon="6.06939">
        <ele>1505</ele>
        <time>2020-10-27T09:26:46+01:00</time>
      </trkpt>
      <trkpt lat="44.97329" lon="6.06963">
        <ele>1506</ele>
        <time>2020-10-27T09:26:51+01:00</time>
      </trkpt>
      <trkpt lat="44.97383" lon="6.06918">
        <ele>1515</ele>
        <time>2020-10-27T09:26:56+01:00</time>
      </trkpt>
      <trkpt lat="44.97386" lon="6.06785">
        <ele>1518</ele>
        <time>2020-10-27T09:27:01+01:00</time>
      </trkpt>
      <trkpt lat="44.97383" lon="6.06669">
        <ele>1515</ele>
        <time>2020-10-27T09:27:06+01:00</time>
      </trkpt>
      <trkpt lat="44.97406" lon="6.06568">
        <ele>1523</ele>
        <time>2020-10-27T09:27:11+01:00</time>
      </trkpt>
      <trkpt lat="44.97446" lon="6.06456">
        <ele>1541</ele>
        <time>2020-10-27T09:27:16+01:00</time>
      </trkpt>
      <trkpt lat="44.97518" lon="6.06377">
        <ele>1538</ele>
        <time>2020-10-27T09:27:21+01:00</time>
      </trkpt>
      <trkpt lat="44.97597" lon="6.06396">
        <ele>1539</ele>
        <time>2020-10-27T09:27:26+01:00</time>
      </trkpt>
      <trkpt lat="44.97699" lon="6.06516">
        <ele>1508</ele>
        <time>2020-10-27T09:27:31+01:00</time>
      </trkpt>
      <trkpt lat="44.97772" lon="6.06624">
        <ele>1471</ele>
        <time>2020-10-27T09:27:36+01:00</time>
      </trkpt>
      <trkpt lat="44.97758" lon="6.06667">
        <ele>1464</ele>
        <time>2020-10-27T09:27:41+01:00</time>
      </trkpt>
      <trkpt lat="44.97851" lon="6.06748">
        <ele>1389</ele>
        <time>2020-10-27T09:27:46+01:00</time>
      </trkpt>
      <trkpt lat="44.97827" lon="6.06823">
        <ele>1377</ele>
        <time>2020-10-27T09:27:51+01:00</time>
      </trkpt>
      <trkpt lat="44.97916" lon="6.06763">
        <ele>1338</ele>
        <time>2020-10-27T09:27:56+01:00</time>
      </trkpt>
      <trkpt lat="44.97953" lon="6.06823">
        <ele>1316</ele>
        <time>2020-10-27T09:28:01+01:00</time>
      </trkpt>
      <trkpt lat="44.97936" lon="6.06894">
        <ele>1310</ele>
        <time>2020-10-27T09:28:06+01:00</time>
      </trkpt>
      <trkpt lat="44.97933" lon="6.07016">
        <ele>1288</ele>
        <time>2020-10-27T09:28:11+01:00</time>
      </trkpt>
      <trkpt lat="44.97957" lon="6.0704">
        <ele>1272</ele>
        <time>2020-10-27T09:28:16+01:00</time>
      </trkpt>
      <trkpt lat="44.97981" lon="6.06973">
        <ele>1266</ele>
        <time>2020-10-27T09:28:21+01:00</time>
      </trkpt>
      <trkpt lat="44.98021" lon="6.06978">
        <ele>1249</ele>
        <time>2020-10-27T09:28:26+01:00</time>
      </trkpt>
      <trkpt lat="44.98" lon="6.07025">
        <ele>1245</ele>
        <time>2020-10-27T09:28:31+01:00</time>
      </trkpt>
      <trkpt lat="44.98038" lon="6.0704">
        <ele>1227</ele>
        <time>2020-10-27T09:28:36+01:00</time>
      </trkpt>
      <trkpt lat="44.98066" lon="6.07027">
        <ele>1218</ele>
        <time>2020-10-27T09:28:41+01:00</time>
      </trkpt>
      <trkpt lat="44.98068" lon="6.07113">
        <ele>1195</ele>
        <time>2020-10-27T09:28:46+01:00</time>
      </trkpt>
      <trkpt lat="44.98104" lon="6.07134">
        <ele>1186</ele>
        <time>2020-10-27T09:28:51+01:00</time>
      </trkpt>
      <trkpt lat="44.98189" lon="6.07227">
        <ele>1149</ele>
        <time>2020-10-27T09:28:56+01:00</time>
      </trkpt>
      <trkpt lat="44.9827" lon="6.07222">
        <ele>1126</ele>
        <time>2020-10-27T09:29:01+01:00</time>
      </trkpt>
      <trkpt lat="44.98333" lon="6.0728">
        <ele>1107</ele>
        <time>2020-10-27T09:29:06+01:00</time>
      </trkpt>
      <trkpt lat="44.98406" lon="6.07272">
        <ele>1094</ele>
        <time>2020-10-27T09:29:11+01:00</time>
      </trkpt>
      <trkpt lat="44.9845" lon="6.07338">
        <ele>1081</ele>
        <time>2020-10-27T09:29:16+01:00</time>
      </trkpt>
      <trkpt lat="44.98502" lon="6.07392">
        <ele>1071</ele>
        <time>2020-10-27T09:29:21+01:00</time>
      </trkpt>
      <trkpt lat="44.98619" lon="6.07426">
        <ele>1043</ele>
        <time>2020-10-27T09:29:26+01:00</time>
      </trkpt>
      <trkpt lat="44.98595" lon="6.07503">
        <ele>1032</ele>
        <time>2020-10-27T09:29:31+01:00</time>
      </trkpt>
      <trkpt lat="44.98687" lon="6.07518">
        <ele>1006</ele>
        <time>2020-10-27T09:29:36+01:00</time>
      </trkpt>
      <trkpt lat="44.98822" lon="6.07512">
        <ele>975</ele>
        <time>2020-10-27T09:29:41+01:00</time>
      </trkpt>
      <trkpt lat="44.98918" lon="6.07478">
        <ele>960</ele>
        <time>2020-10-27T09:29:46+01:00</time>
      </trkpt>
      <trkpt lat="44.9906" lon="6.07475">
        <ele>915</ele>
        <time>2020-10-27T09:29:51+01:00</time>
      </trkpt>
      <trkpt lat="44.99121" lon="6.07445">
        <ele>901</ele>
        <time>2020-10-27T09:29:56+01:00</time>
      </trkpt>
      <trkpt lat="44.99232" lon="6.07424">
        <ele>880</ele>
        <time>2020-10-27T09:30:01+01:00</time>
      </trkpt>
      <trkpt lat="44.99308" lon="6.07325">
        <ele>859</ele>
        <time>2020-10-27T09:30:06+01:00</time>
      </trkpt>
      <trkpt lat="44.99352" lon="6.0725">
        <ele>852</ele>
        <time>2020-10-27T09:30:11+01:00</time>
      </trkpt>
      <trkpt lat="44.99405" lon="6.07205">
        <ele>844</ele>
        <time>2020-10-27T09:30:16+01:00</time>
      </trkpt>
      <trkpt lat="44.99443" lon="6.0722">
        <ele>839</ele>
        <time>2020-10-27T09:30:21+01:00</time>
      </trkpt>
      <trkpt lat="44.99537" lon="6.07164">
        <ele>825</ele>
        <time>2020-10-27T09:30:26+01:00</time>
      </trkpt>
      <trkpt lat="44.99669" lon="6.07083">
        <ele>804</ele>
        <time>2020-10-27T09:30:31+01:00</time>
      </trkpt>
      <trkpt lat="44.99721" lon="6.06969">
        <ele>806</ele>
        <time>2020-10-27T09:30:36+01:00</time>
      </trkpt>
      <trkpt lat="44.99828" lon="6.06898">
        <ele>806</ele>
        <time>2020-10-27T09:30:41+01:00</time>
      </trkpt>
      <trkpt lat="44.99944" lon="6.0689">
        <ele>786</ele>
        <time>2020-10-27T09:30:46+01:00</time>
      </trkpt>
      <trkpt lat="45.00013" lon="6.0681">
        <ele>783</ele>
        <time>2020-10-27T09:30:51+01:00</time>
      </trkpt>
      <trkpt lat="45.00057" lon="6.06812">
        <ele>777</ele>
        <time>2020-10-27T09:30:56+01:00</time>
      </trkpt>
      <trkpt lat="45.0013" lon="6.06791">
        <ele>781</ele>
        <time>2020-10-27T09:31:01+01:00</time>
      </trkpt>
      <trkpt lat="45.00209" lon="6.0681">
        <ele>769</ele>
        <time>2020-10-27T09:31:06+01:00</time>
      </trkpt>
      <trkpt lat="45.00349" lon="6.06787">
        <ele>769</ele>
        <time>2020-10-27T09:31:11+01:00</time>
      </trkpt>
      <trkpt lat="45.00432" lon="6.06727">
        <ele>764</ele>
        <time>2020-10-27T09:31:16+01:00</time>
      </trkpt>
      <trkpt lat="45.00523" lon="6.06686">
        <ele>760</ele>
        <time>2020-10-27T09:31:21+01:00</time>
      </trkpt>
      <trkpt lat="45.00616" lon="6.06596">
        <ele>757</ele>
        <time>2020-10-27T09:31:26+01:00</time>
      </trkpt>
      <trkpt lat="45.00632" lon="6.06542">
        <ele>756</ele>
        <time>2020-10-27T09:31:31+01:00</time>
      </trkpt>
      <trkpt lat="45.00676" lon="6.06506">
        <ele>755</ele>
        <time>2020-10-27T09:31:36+01:00</time>
      </trkpt>
      <trkpt lat="45.00777" lon="6.06362">
        <ele>752</ele>
        <time>2020-10-27T09:31:41+01:00</time>
      </trkpt>
      <trkpt lat="45.00881" lon="6.06321">
        <ele>752</ele>
        <time>2020-10-27T09:31:46+01:00</time>
      </trkpt>
      <trkpt lat="45.00946" lon="6.0622">
        <ele>756</ele>
        <time>2020-10-27T09:31:51+01:00</time>
      </trkpt>
      <trkpt lat="45.00981" lon="6.06175">
        <ele>756</ele>
        <time>2020-10-27T09:31:56+01:00</time>
      </trkpt>
      <trkpt lat="45.01235" lon="6.06025">
        <ele>748</ele>
        <time>2020-10-27T09:32:01+01:00</time>
      </trkpt>
      <trkpt lat="45.01292" lon="6.06019">
        <ele>746</ele>
        <time>2020-10-27T09:32:06+01:00</time>
      </trkpt>
      <trkpt lat="45.01405" lon="6.05961">
        <ele>746</ele>
        <time>2020-10-27T09:32:11+01:00</time>
      </trkpt>
      <trkpt lat="45.01423" lon="6.05916">
        <ele>747</ele>
        <time>2020-10-27T09:32:16+01:00</time>
      </trkpt>
      <trkpt lat="45.01406" lon="6.05825">
        <ele>749</ele>
        <time>2020-10-27T09:32:21+01:00</time>
      </trkpt>
      <trkpt lat="45.0142" lon="6.05765">
        <ele>752</ele>
        <time>2020-10-27T09:32:26+01:00</time>
      </trkpt>
      <trkpt lat="45.01482" lon="6.05744">
        <ele>754</ele>
        <time>2020-10-27T09:32:31+01:00</time>
      </trkpt>
      <trkpt lat="45.01514" lon="6.05677">
        <ele>757</ele>
        <time>2020-10-27T09:32:36+01:00</time>
      </trkpt>
      <trkpt lat="45.01527" lon="6.05613">
        <ele>759</ele>
        <time>2020-10-27T09:32:41+01:00</time>
      </trkpt>
      <trkpt lat="45.01582" lon="6.05589">
        <ele>763</ele>
        <time>2020-10-27T09:32:46+01:00</time>
      </trkpt>
      <trkpt lat="45.01615" lon="6.05553">
        <ele>772</ele>
        <time>2020-10-27T09:32:51+01:00</time>
      </trkpt>
      <trkpt lat="45.01649" lon="6.05579">
        <ele>770</ele>
        <time>2020-10-27T09:32:56+01:00</time>
      </trkpt>
      <trkpt lat="45.01678" lon="6.05544">
        <ele>786</ele>
        <time>2020-10-27T09:33:01+01:00</time>
      </trkpt>
      <trkpt lat="45.01699" lon="6.05585">
        <ele>767</ele>
        <time>2020-10-27T09:33:06+01:00</time>
      </trkpt>
      <trkpt lat="45.01781" lon="6.05583">
        <ele>765</ele>
        <time>2020-10-27T09:33:11+01:00</time>
      </trkpt>
      <trkpt lat="45.01825" lon="6.05592">
        <ele>756</ele>
        <time>2020-10-27T09:33:16+01:00</time>
      </trkpt>
      <trkpt lat="45.01881" lon="6.05572">
        <ele>758</ele>
        <time>2020-10-27T09:33:21+01:00</time>
      </trkpt>
      <trkpt lat="45.01958" lon="6.05592">
        <ele>747</ele>
        <time>2020-10-27T09:33:26+01:00</time>
      </trkpt>
      <trkpt lat="45.01955" lon="6.05725">
        <ele>740</ele>
        <time>2020-10-27T09:33:31+01:00</time>
      </trkpt>
      <trkpt lat="45.01928" lon="6.05806">
        <ele>740</ele>
        <time>2020-10-27T09:33:36+01:00</time>
      </trkpt>
      <trkpt lat="45.01993" lon="6.0583">
        <ele>739</ele>
        <time>2020-10-27T09:33:41+01:00</time>
      </trkpt>
      <trkpt lat="45.02061" lon="6.058">
        <ele>739</ele>
        <time>2020-10-27T09:33:46+01:00</time>
      </trkpt>
      <trkpt lat="45.02101" lon="6.05802">
        <ele>739</ele>
        <time>2020-10-27T09:33:51+01:00</time>
      </trkpt>
      <trkpt lat="45.02213" lon="6.05731">
        <ele>738</ele>
        <time>2020-10-27T09:33:56+01:00</time>
      </trkpt>
      <trkpt lat="45.0226" lon="6.05667">
        <ele>738</ele>
        <time>2020-10-27T09:34:01+01:00</time>
      </trkpt>
      <trkpt lat="45.02271" lon="6.05557">
        <ele>738</ele>
        <time>2020-10-27T09:34:06+01:00</time>
      </trkpt>
      <trkpt lat="45.02322" lon="6.05516">
        <ele>737</ele>
        <time>2020-10-27T09:34:11+01:00</time>
      </trkpt>
      <trkpt lat="45.02416" lon="6.05373">
        <ele>737</ele>
        <time>2020-10-27T09:34:16+01:00</time>
      </trkpt>
      <trkpt lat="45.02475" lon="6.05332">
        <ele>737</ele>
        <time>2020-10-27T09:34:21+01:00</time>
      </trkpt>
      <trkpt lat="45.02568" lon="6.05201">
        <ele>737</ele>
        <time>2020-10-27T09:34:26+01:00</time>
      </trkpt>
      <trkpt lat="45.0265" lon="6.05214">
        <ele>734</ele>
        <time>2020-10-27T09:34:31+01:00</time>
      </trkpt>
      <trkpt lat="45.02715" lon="6.05158">
        <ele>732</ele>
        <time>2020-10-27T09:34:36+01:00</time>
      </trkpt>
      <trkpt lat="45.0278" lon="6.05089">
        <ele>730</ele>
        <time>2020-10-27T09:34:41+01:00</time>
      </trkpt>
      <trkpt lat="45.02867" lon="6.05038">
        <ele>730</ele>
        <time>2020-10-27T09:34:46+01:00</time>
      </trkpt>
      <trkpt lat="45.03034" lon="6.04875">
        <ele>730</ele>
        <time>2020-10-27T09:34:51+01:00</time>
      </trkpt>
      <trkpt lat="45.03125" lon="6.04815">
        <ele>728</ele>
        <time>2020-10-27T09:34:56+01:00</time>
      </trkpt>
      <trkpt lat="45.03201" lon="6.04665">
        <ele>731</ele>
        <time>2020-10-27T09:35:01+01:00</time>
      </trkpt>
      <trkpt lat="45.03228" lon="6.04579">
        <ele>733</ele>
        <time>2020-10-27T09:35:06+01:00</time>
      </trkpt>
      <trkpt lat="45.03347" lon="6.0451">
        <ele>732</ele>
        <time>2020-10-27T09:35:11+01:00</time>
      </trkpt>
      <trkpt lat="45.03432" lon="6.0451">
        <ele>728</ele>
        <time>2020-10-27T09:35:16+01:00</time>
      </trkpt>
      <trkpt lat="45.03532" lon="6.04407">
        <ele>720</ele>
        <time>2020-10-27T09:35:21+01:00</time>
      </trkpt>
      <trkpt lat="45.03571" lon="6.04248">
        <ele>721</ele>
        <time>2020-10-27T09:35:26+01:00</time>
      </trkpt>
      <trkpt lat="45.03711" lon="6.04154">
        <ele>720</ele>
        <time>2020-10-27T09:35:31+01:00</time>
      </trkpt>
      <trkpt lat="45.03817" lon="6.04029">
        <ele>720</ele>
        <time>2020-10-27T09:35:36+01:00</time>
      </trkpt>
      <trkpt lat="45.03926" lon="6.03759">
        <ele>720</ele>
        <time>2020-10-27T09:35:41+01:00</time>
      </trkpt>
      <trkpt lat="45.03932" lon="6.03708">
        <ele>724</ele>
        <time>2020-10-27T09:35:46+01:00</time>
      </trkpt>
      <trkpt lat="45.0398" lon="6.03635">
        <ele>722</ele>
        <time>2020-10-27T09:35:51+01:00</time>
      </trkpt>
      <trkpt lat="45.03996" lon="6.03493">
        <ele>740</ele>
        <time>2020-10-27T09:35:56+01:00</time>
      </trkpt>
      <trkpt lat="45.04117" lon="6.03416">
        <ele>724</ele>
        <time>2020-10-27T09:36:01+01:00</time>
      </trkpt>
      <trkpt lat="45.04262" lon="6.03394">
        <ele>727</ele>
        <time>2020-10-27T09:36:06+01:00</time>
      </trkpt>
      <trkpt lat="45.04317" lon="6.03356">
        <ele>732</ele>
        <time>2020-10-27T09:36:11+01:00</time>
      </trkpt>
      <trkpt lat="45.04364" lon="6.03356">
        <ele>732</ele>
        <time>2020-10-27T09:36:16+01:00</time>
      </trkpt>
      <trkpt lat="45.04504" lon="6.0325">
        <ele>727</ele>
        <time>2020-10-27T09:36:21+01:00</time>
      </trkpt>
      <trkpt lat="45.04601" lon="6.03092">
        <ele>723</ele>
        <time>2020-10-27T09:36:26+01:00</time>
      </trkpt>
      <trkpt lat="45.04669" lon="6.02991">
        <ele>727</ele>
        <time>2020-10-27T09:36:31+01:00</time>
      </trkpt>
      <trkpt lat="45.04784" lon="6.02911">
        <ele>725</ele>
        <time>2020-10-27T09:36:36+01:00</time>
      </trkpt>
      <trkpt lat="45.04855" lon="6.02832">
        <ele>723</ele>
        <time>2020-10-27T09:36:41+01:00</time>
      </trkpt>
      <trkpt lat="45.04901" lon="6.02766">
        <ele>725</ele>
        <time>2020-10-27T09:36:46+01:00</time>
      </trkpt>
      <trkpt lat="45.04949" lon="6.02796">
        <ele>723</ele>
        <time>2020-10-27T09:36:51+01:00</time>
      </trkpt>
      <trkpt lat="45.05054" lon="6.02907">
        <ele>720</ele>
        <time>2020-10-27T09:36:56+01:00</time>
      </trkpt>
      <trkpt lat="45.05177" lon="6.02959">
        <ele>720</ele>
        <time>2020-10-27T09:37:01+01:00</time>
      </trkpt>
      <trkpt lat="45.05249" lon="6.02952">
        <ele>721</ele>
        <time>2020-10-27T09:37:06+01:00</time>
      </trkpt>
      <trkpt lat="45.05409" lon="6.02896">
        <ele>720</ele>
        <time>2020-10-27T09:37:11+01:00</time>
      </trkpt>
      <trkpt lat="45.05446" lon="6.03105">
        <ele>719</ele>
        <time>2020-10-27T09:37:16+01:00</time>
      </trkpt>
      <trkpt lat="45.05477" lon="6.03186">
        <ele>719</ele>
        <time>2020-10-27T09:37:21+01:00</time>
      </trkpt>
    </trkseg>
  </trk>
</gpx>